Regional Weather Roundup
Issued by NWS

Home | Current Version | Previous Version | Text Only | Print | Product List | Glossary Off
Versions: 1 2 3 4 5 6 7 8 9 10 11 12 13 14 15 16 17 18 19 20 21 22 23 24 25 26 27 28 29 30 31 32 33 34 35 36 37 38 39 40 41 42 43 44 45 46 47 48 49 50

000
ASUS43 KMPX 031510
RWRMN
WEATHER ROUNDUP FOR MINNESOTA
NATIONAL WEATHER SERVICE TWIN CITIES/CHANHASSEN MN
1000 AM CDT MON AUG 03 2015


NOTE: "FAIR" INDICATES FEW OR NO CLOUDS BELOW 12,000 FEET WITH NO
SIGNIFICANT WEATHER AND/OR OBSTRUCTIONS TO VISIBILITY. N/A MEANS
CURRENT SKY AND/OR WEATHER CONDITIONS ARE NOT AVAILABLE.

MNZ060>063-068>070-031600-
   Twin Cities Metro

CITY           SKY/WX    TMP DP  RH WIND       PRES   REMARKS
TWIN CITIES    SUNNY     73  47  39 NW18      29.91R
ST PAUL        SUNNY     73  48  41 NW15      29.91R
CRYSTAL        SUNNY     73  49  42 NW15      29.90S
BLAINE         SUNNY     72  52  49 NW9       29.90S
LAKEVILLE      SUNNY     68  55  64 W5        29.92R
EDEN PRAIRIE   SUNNY     72  53  51 NW9       29.91S
SOUTH ST PAUL  SUNNY     73  44  34 NW13G18   29.90S
LAKE ELMO      FAIR      70  52  52 NW9       29.91S
$$
MNZ001>005-007-008-013>017-022>024-027-028-031600-
   Northwest Minnesota

CITY           SKY/WX    TMP DP  RH WIND       PRES   REMARKS
BEMIDJI        SUNNY     65  51  60 NW10      29.91S
HALLOCK        SUNNY     64  54  68 N10G20    29.92F
ROSEAU         SUNNY     64  54  68 NW13      29.88S
WARROAD        PTSUNNY   63  54  72 NW17      29.88S
THIEF RVR FALL SUNNY     64  52  63 NW14      29.93S
CROOKSTON      SUNNY     66  54  63 N13G21    29.94
FOSSTON        SUNNY     66  48  52 NW14      29.93S
DETROIT LAKES  SUNNY     64  50  59 N7        29.95S
MOORHEAD       SUNNY     64  55  72 N3        29.95S
PARK RAPIDS    SUNNY     68  50  52 NW15      29.92S
MAHNOMEN       FAIR      64  52  65 NW6       29.93F
$$
MNZ006-009>011-018-025>026-031600-
   North Central Minnesota

CITY           SKY/WX    TMP DP  RH WIND       PRES   REMARKS
BAUDETTE       CLOUDY    61  52  72 NW9       29.86S
FLAG ISLAND    CLOUDY    57  54  88 NW16      29.85S
INTL FALLS     CLOUDY    62  54  74 NW12      29.83R
WASKISH        MOSUNNY   64  54  68 W14G20    29.88S
BIG FORK       MOSUNNY   61  52  72 NW8       29.87R
LONGVILLE      SUNNY     64  52  63 W7G18     29.90S
GRAND RAPIDS   MOSUNNY   64  48  55 NW16G22   29.87F
CRANE LAKE     CLOUDY    59  52  77 NW8       29.83R
ORR            PTSUNNY   61  50  67 NW13G18   29.81S
COOK           MOSUNNY   61  52  72 W9        29.83S
WALKER         FAIR      64  52  63 NW9       29.91S
$$
MNZ012-019>021-037-031600-
   Northeast Minnesota

CITY           SKY/WX    TMP DP  RH WIND       PRES   REMARKS
DULUTH         MOSUNNY   67  51  56 NW21G28   29.82S
ELY            PTSUNNY   61  50  67 NW12G21   29.80S
HIBBING        CLOUDY    62  51  67 NW14G24   29.85R
EVELETH        PTSUNNY   63  50  63 NW17G26   29.84S
DULUTH HARBOR  SUNNY     68  54  60 W18       29.82S
TWO HARBORS    MOSUNNY   70  55  60 W7        29.78S
SILVER BAY     MOSUNNY   68  52  56 W7G16     29.77S
GRAND MARAIS     N/A     67  52  58 NW12G21   29.72S
G MARAIS ARPRT SUNNY     59  48  67 NW9G20    29.76S
$$
MNZ029>031-032-039>041-046>048-054>057-064-031600-
   West Central Minnesota

CITY           SKY/WX    TMP DP  RH WIND       PRES   REMARKS
FERGUS FALLS   SUNNY     64  54  68 NW5       29.95S
WHEATON        SUNNY     66  54  63 W7        29.98S
MORRIS         SUNNY     66  55  68 NW6       29.95S
ALEXANDRIA     SUNNY     69  51  52 NW7       29.96S
ELBOW LAKE     FAIR      64  53  67 NW7       29.96S
WADENA         SUNNY     66  48  52 NW9       29.93S
GLENWOOD       SUNNY     70  54  56 NW3       29.96R
APPLETON       SUNNY     72  54  53 W7        29.96S
BENSON         SUNNY     70  54  56 N6        29.96S
ORTONVILLE     SUNNY     70  52  52 NW7       29.97S
MADISON        SUNNY     70  55  60 NW7       29.97S
WILLMAR        FAIR      68  57  68 W7        29.97S
$$
MNZ033>034-036-042>043-049>051-058-059-031600-
   Central Minnesota

CITY           SKY/WX    TMP DP  RH WIND       PRES   REMARKS
ST CLOUD       SUNNY     69  50  50 NW12      29.92S
SAUK CENTRE    FAIR      68  50  53 NW8       29.95R
PAYNESVILLE    SUNNY     67  50  55 W6        29.95S
AITKIN         SUNNY     68  54  60 NW8       29.88S
PINE RIVER     SUNNY     66  52  59 NW9G16    29.94S
BRAINERD       SUNNY     68  48  48 N18G24    29.91S
STAPLES        SUNNY     66  46  48 NW9       29.93S
LONG PRAIRIE   FAIR      68  48  49 W9        29.95R
LITCHFIELD     SUNNY     70  57  64 W6        29.95R
BUFFALO        SUNNY     70  49  48 NW9       29.94S
$$
MNZ037-044-045-052-053-031600-
   East Central Minnesota

CITY           SKY/WX    TMP DP  RH WIND       PRES   REMARKS
PRINCETON      SUNNY     72  52  49 NW14G22   29.91S
MORA           SUNNY     66  50  55 NW12G20   29.91R
CAMBRIDGE      SUNNY     72  54  53 NW14      29.88S
RUSH CITY      SUNNY     68  52  55 NW13G20   29.89S
MOOSE LAKE     MOSUNNY   64  50  59 NW7G20    29.86R
HINCKLEY       FAIR      66  52  59 NW12G18   29.88S
CLOQUET        MOSUNNY   64  50  59 W15G21    29.85R
MCGREGOR       MOSUNNY   66  52  59 NW15G21   29.89R
$$
MNZ071>073-080-081-089-090-097-098-031600-
   Southwest Minnesota

CITY           SKY/WX    TMP DP  RH WIND       PRES   REMARKS
MONTEVIDEO     SUNNY     73  63  68 NW3       29.98S
GRANITE FALLS  SUNNY     68  56  64 NW5       29.98F
CANBY          SUNNY     71  53  52 NW7       30.00R
MARSHALL       SUNNY     70  52  52 NW7       30.00R
REDWOOD FALLS  SUNNY     71  55  56 W7        29.95F
OLIVIA         SUNNY     68  55  64 W9        29.95F
PIPESTONE      SUNNY     70  57  64 NW5       30.01R
WINDOM         SUNNY     72  55  56 SW8       29.98S
WORTHINGTON    SUNNY     70  54  56 W8        30.00S
JACKSON        SUNNY     72  54  53 W7        29.99S
TRACY          SUNNY     70  57  64 NW8       29.99S
SLAYTON        SUNNY     70  55  59 NW10      30.01S
$$
MNZ065>067-074>077-082>085-091>093-031600-
   South Central Minnesota

CITY           SKY/WX    TMP DP  RH WIND       PRES   REMARKS
MANKATO        SUNNY     68  54  60 NW8       29.94F
NEW ULM        SUNNY     70  54  56 W9        29.95S
FAIRMONT       SUNNY     72  52  49 W7        29.97S
GLENCOE        SUNNY     69  58  69 W6        29.94R
FARIBAULT      SUNNY     70  55  60 W7        29.94R
OWATONNA       SUNNY     70  55  60 NW9       29.94S
WASECA         SUNNY     68  57  68 NW7       29.96S
ALBERT LEA     SUNNY     70  55  60 W8        29.95S
$$
MNZ078>079-086>088-094>096-031600-
   Southeast Minnesota

CITY           SKY/WX    TMP DP  RH WIND       PRES   REMARKS
ROCHESTER      SUNNY     69  58  67 NW10      29.94S
RED WING       SUNNY     72  55  56 W8        29.89S
STANTON        SUNNY     69  56  63 W6        29.91S
DODGE CENTER   SUNNY     66  55  68 W8        29.94R
WINONA         SUNNY     70  54  56 W7        29.90S
AUSTIN         SUNNY     70  55  60 W12       29.94S
PRESTON        SUNNY     69  54  58 W12       29.93S
$$
ABBREVIATIONS USED IN REMARKS
   TC - TEMPERATURES IN CELSIUS
  WCI - WIND CHILL INDEX
   HX - HEAT INDEX
  VSB - VISIBILITY
$$



USA.gov is the U.S. government's official web portal to all federal, state and local government web resources and services.